Location: Noverd
(38.0910°N, 121.6877°W)
Time: 06:03:37
(UTC+00:00)

Cosmos 2100 Rocket - Pass Details

Date: 20 May 2026
Orbit: 956 x 999 km, 82.9° (Epoch: 8 June)

Event Time Altitude Azimuth Distance (km) Brightness Sun altitude
Rises 04:37:59 0° 229° (SW) 3,664 7.1 -14.6°
Reaches altitude 10° 04:41:18 10° 247° (WSW) 2,730 6.7 -15.0°
Maximum altitude 04:45:34 19° 290° (WNW) 2,169 6.7 -15.7°
Drops below altitude 10° 04:49:52 10° 333° (NNW) 2,759 7.5 -16.3°
Sets 04:53:17 0° 351° (N) 3,719 7.9 -16.8°
